Wainwright, AK

10:22 AM AKDT on October 20, 2017 (GMT -0800)
Wainwright

Weather History for PAWI - August, 2013

Change the Weather History Date:

Wednesday, August 7, 2013

  Actual Average (PABR) Record (PABR)
Temperature  
Mean Temperature 46 °F -  
Max Temperature 53 °F 42 °F 69 °F (1925)
Min Temperature 41 °F 33 °F 27 °F (1964)
Degree Days  
Heating Degree Days 18    
Moisture  
Dew Point 42 °F    
Average Humidity 87    
Maximum Humidity 97    
Minimum Humidity 76    
Precipitation  
Precipitation 0.00 in - - ()
Sea Level Pressure  
Sea Level Pressure 29.83 in    
Wind  
Wind Speed 9 mph (NE)    
Max Wind Speed 15 mph    
Max Gust Speed -    
Visibility 7 miles    
Events Fog    
Averages and records for this station are not official NWS values.
T = Trace of Precipitation, MM = Missing Value Source: NWS Daily Summary

Daily Weather History Graph

Daily Weather History Graph

Search for Another Location

Airport or City:

Trip Planner

Search our weather history database for the weather conditions in past years. The results will help you decide how hot, cold, wet, or windy it might be!

Date:

Astronomy

Aug. 07, 2013 Rise Set
Actual Time 4:40 AM AKDT 12:44 AM AKDT
Civil Twilight Sun does not rise Sun does not rise
Nautical Twilight Sun does not rise Sun does not rise
Astronomical Twilight Sun does not rise Sun does not rise
Moon 7:24 AM AKDT (8/7) 10:54 PM AKDT (8/7)
Length of Visible Light 24h 00m
Length of Day
20h 03m
New Moon, 1% of the Moon is Illuminated
Aug 7
New Moon
Aug 14
First Quarter
Aug 20
Full
Aug 28
Last Quarter
Sep 5
New

Hourly Weather History & Observations

Time (AKDT) Temp. Windchill Dew Point Humidity Pressure Visibility Wind Dir Wind Speed Gust Speed Precip Events Conditions
12:53 AM 46.9 °F - 46.0 °F 97% 29.94 in 0.2 mi East 10.4 mph - N/A Fog Fog
1:53 AM 46.0 °F 40.6 °F 44.1 °F 93% 29.94 in 0.5 mi East 11.5 mph - N/A Fog Fog
2:53 AM 44.1 °F 39.5 °F 42.1 °F 93% 29.94 in 0.5 mi ENE 8.1 mph - N/A Fog Fog
3:43 AM 42.8 °F 38.0 °F 41.0 °F 93% 29.92 in 1.2 mi East 8.1 mph - N/A   Overcast
3:53 AM 43.0 °F 38.8 °F 41.0 °F 93% 29.93 in 0.5 mi East 6.9 mph - N/A Fog Fog
4:45 AM 42.8 °F 39.3 °F 39.2 °F 87% 29.92 in 0.5 mi ENE 5.8 mph - N/A Fog Fog
4:53 AM 42.1 °F 37.7 °F 39.9 °F 92% 29.92 in 1.5 mi East 6.9 mph - N/A   Overcast
5:18 AM 42.8 °F 38.6 °F 39.2 °F 87% 29.91 in 3.0 mi ENE 6.9 mph - N/A   Overcast
5:53 AM 42.1 °F 38.4 °F 39.9 °F 92% 29.90 in 10.0 mi East 5.8 mph - N/A   Mostly Cloudy
6:05 AM 42.8 °F 38.6 °F 39.2 °F 87% 29.90 in 10.0 mi ENE 6.9 mph - N/A   Scattered Clouds
6:53 AM 43.0 °F 37.7 °F 39.9 °F 89% 29.89 in 10.0 mi NNE 9.2 mph - N/A   Partly Cloudy
7:53 AM 44.1 °F 38.6 °F 42.1 °F 93% 29.88 in 10.0 mi ENE 10.4 mph - N/A   Overcast
8:53 AM 45.0 °F 41.2 °F 42.1 °F 90% 29.87 in 10.0 mi ENE 6.9 mph - N/A   Scattered Clouds
9:14 AM 46.4 °F 42.4 °F 42.8 °F 87% 29.86 in 10.0 mi NNE 8.1 mph - N/A   Mostly Cloudy
9:53 AM 46.9 °F - 43.0 °F 86% 29.87 in 10.0 mi ENE 6.9 mph - N/A   Overcast
10:42 AM 46.4 °F 42.4 °F 44.6 °F 93% 29.85 in 10.0 mi NE 8.1 mph - N/A   Mostly Cloudy
10:53 AM 48.0 °F - 44.1 °F 86% 29.85 in 10.0 mi NNE 8.1 mph - N/A   Overcast
11:21 AM 48.2 °F - 44.6 °F 87% 29.84 in 10.0 mi NE 9.2 mph - N/A   Overcast
11:53 AM 48.9 °F - 44.1 °F 83% 29.83 in 10.0 mi NE 9.2 mph - N/A   Overcast
12:53 PM 50.0 °F - 45.0 °F 83% 29.83 in 10.0 mi ENE 11.5 mph - N/A   Mostly Cloudy
1:28 PM 51.8 °F - 44.6 °F 76% 29.82 in 10.0 mi NE 8.1 mph - N/A   Scattered Clouds
1:53 PM 51.1 °F - 45.0 °F 80% 29.81 in 10.0 mi NE 10.4 mph - N/A   Clear
2:53 PM 51.1 °F - 44.1 °F 77% 29.80 in 10.0 mi NE 10.4 mph - N/A   Clear
3:53 PM 51.1 °F - 44.1 °F 77% 29.77 in 10.0 mi NNE 11.5 mph - N/A   Clear
4:53 PM 50.0 °F - 44.1 °F 80% 29.76 in 10.0 mi NNE 11.5 mph - N/A   Clear
5:53 PM 51.1 °F - 45.0 °F 80% 29.76 in 10.0 mi NNE 8.1 mph - N/A   Clear
6:53 PM 48.0 °F - 43.0 °F 83% 29.75 in 10.0 mi North 11.5 mph - N/A   Clear
7:53 PM 46.9 °F - 43.0 °F 86% 29.74 in 10.0 mi North 9.2 mph - N/A   Clear
8:53 PM 45.0 °F 38.9 °F 41.0 °F 86% 29.74 in 10.0 mi North 12.7 mph - N/A   Clear
9:53 PM 44.1 °F 38.6 °F 41.0 °F 89% 29.74 in 10.0 mi North 10.4 mph - N/A   Clear
10:30 PM 42.8 °F 36.2 °F 39.2 °F 87% 29.74 in 9.0 mi North 12.7 mph - N/A   Scattered Clouds
10:39 PM 42.8 °F 35.8 °F 39.2 °F 87% 29.73 in 3.0 mi North 13.8 mph - N/A   Mostly Cloudy
10:41 PM 42.8 °F 36.2 °F 39.2 °F 87% 29.73 in 1.8 mi North 12.7 mph - N/A   Mostly Cloudy
10:53 PM 42.1 °F 34.9 °F 39.9 °F 92% 29.73 in 0.2 mi North 13.8 mph - N/A Fog Fog
11:53 PM 41.0 °F 33.1 °F 39.0 °F 93% 29.73 in 0.2 mi NNE 15.0 mph - N/A Fog Fog